TimeEDT,TemperatureF,Dew PointF,Humidity,Sea Level PressureIn,VisibilityMPH,Wind Direction,Wind SpeedMPH,Gust SpeedMPH,PrecipitationIn,Events,Conditions,WindDirDegrees,DateUTC
12:53 AM,33.1,27.0,78,30.12,10.0,NW,6.9,-,N/A,,Partly Cloudy,310,2012-11-03 04:53:00
1:53 AM,30.9,27.0,85,30.12,10.0,WNW,5.8,-,N/A,,Scattered Clouds,300,2012-11-03 05:53:00
2:53 AM,28.9,26.1,89,30.14,10.0,WNW,4.6,-,N/A,,Clear,290,2012-11-03 06:53:00
3:53 AM,28.0,24.1,85,30.15,10.0,West,5.8,-,N/A,,Clear,280,2012-11-03 07:53:00
4:53 AM,28.0,24.1,85,30.15,10.0,WNW,5.8,-,N/A,,Clear,300,2012-11-03 08:53:00
5:53 AM,30.0,26.1,85,30.16,10.0,WNW,5.8,-,N/A,,Clear,300,2012-11-03 09:53:00
6:53 AM,28.0,25.0,88,30.18,10.0,WNW,5.8,-,N/A,,Clear,290,2012-11-03 10:53:00
7:53 AM,28.0,25.0,88,30.19,10.0,WNW,6.9,-,N/A,,Clear,300,2012-11-03 11:53:00
8:53 AM,30.0,27.0,88,30.19,10.0,WNW,4.6,-,N/A,,Clear,300,2012-11-03 12:53:00
9:53 AM,33.1,27.0,78,30.20,10.0,NNW,10.4,-,N/A,,Clear,340,2012-11-03 13:53:00
10:53 AM,37.0,28.0,70,30.22,10.0,NNW,8.1,-,N/A,,Clear,330,2012-11-03 14:53:00
11:53 AM,39.0,28.0,65,30.23,10.0,Variable,3.5,-,N/A,,Mostly Cloudy,0,2012-11-03 15:53:00
11:56 AM,41.0,28.4,61,30.20,10.0,North,8.1,-,N/A,,Mostly Cloudy,360,2012-11-03 15:56:00
12:53 PM,41.0,28.0,60,30.21,10.0,Variable,3.5,-,N/A,,Mostly Cloudy,0,2012-11-03 16:53:00
1:53 PM,39.0,28.0,65,30.20,10.0,North,3.5,-,N/A,,Overcast,10,2012-11-03 17:53:00
2:53 PM,39.0,28.0,65,30.22,10.0,WNW,8.1,-,N/A,,Overcast,300,2012-11-03 18:53:00
3:53 PM,39.0,28.0,65,30.20,10.0,North,4.6,-,N/A,,Overcast,350,2012-11-03 19:53:00
4:53 PM,37.9,27.0,65,30.20,10.0,WNW,5.8,-,N/A,,Overcast,290,2012-11-03 20:53:00
5:53 PM,37.9,27.0,65,30.20,10.0,NW,5.8,-,N/A,,Overcast,320,2012-11-03 21:53:00
6:53 PM,37.0,27.0,67,30.21,10.0,North,4.6,-,N/A,,Overcast,360,2012-11-03 22:53:00
7:53 PM,37.0,27.0,67,30.21,10.0,NE,3.5,-,N/A,,Overcast,40,2012-11-03 23:53:00
8:53 PM,35.1,26.1,70,30.20,10.0,NE,5.8,-,N/A,,Mostly Cloudy,50,2012-11-04 00:53:00
9:03 PM,33.8,26.6,75,30.18,10.0,NE,5.8,-,N/A,,Scattered Clouds,50,2012-11-04 01:03:00
9:53 PM,32.0,25.0,75,30.20,10.0,NE,6.9,-,N/A,,Clear,40,2012-11-04 01:53:00
10:53 PM,32.0,25.0,75,30.23,10.0,North,4.6,-,N/A,,Partly Cloudy,10,2012-11-04 02:53:00
11:06 PM,32.0,26.6,80,30.20,10.0,Calm,Calm,-,N/A,,Mostly Cloudy,0,2012-11-04 03:06:00
11:53 PM,34.0,26.1,73,30.22,10.0,NNE,4.6,-,N/A,,Overcast,20,2012-11-04 03:53:00